Location: Unspecified
(48.5539°N, 71.6350°W)
Time: 04:44:16
(UTC-05:00)

ISS - Pass Details

Date: 23 January 2019
Orbit: 403 x 411 km, 51.6° (Epoch: 16 February)

Event Time Altitude Azimuth Distance (km) Brightness Sun altitude
Rises 20:22:18 0° 263° (W) 2,337 0.9 -37.9°
Enters shadow 20:22:34 - 264° (W) 2,226 0.7 -38.0°
Reaches altitude 10° 20:24:25 10° 268° (W) 1,479 - -38.3°
Maximum altitude 20:27:41 57° 348° (NNW) 492 - -38.8°
Drops below altitude 10° 20:30:59 10° 68° (ENE) 1,485 - -39.3°
Sets 20:33:06 0° 73° (ENE) 2,349 - -39.6°
